This is the latest recevied weather packets stored in our database for station/object KD8ZLZ. If no packets are shown the sender has not sent any weather packets the latest 10 day(s).
| Time | Temp. | Humidity | Pressure | Rain* | Wind** | Luminosity | Snow |
|---|---|---|---|---|---|---|---|
| 1778003434 | 12.78° C | 65% | 1008.7 hPa | 0.25 mm | - | - | - |
| 1778003153 | 12.78° C | 64% | 1008.7 hPa | 0.25 mm | - | - | - |
| 1778001633 | 11.67° C | 72% | 1008.7 hPa | 0.25 mm | - | - | - |
| 1777999533 | 11.67° C | 68% | 1008.7 hPa | 0 mm | - | - | - |
| 1777999233 | 11.67° C | 68% | 1008.7 hPa | 0 mm | - | - | - |
| 1777997733 | 13.89° C | 59% | 1008.9 hPa | 0 mm | - | - | - |
| 1777995633 | 15° C | 51% | 1008 hPa | 0 mm | - | - | - |
| 1777992933 | 15.56° C | 49% | 1007.7 hPa | 0 mm | - | - | - |
| 1777991734 | 15.56° C | 47% | 1007 hPa | 0 mm | - | - | - |
| 1777988733 | 16.11° C | 62% | 1006.7 hPa | 0 mm | - | - | - |
| 1777986934 | 15.56° C | 63% | 1005.3 hPa | 0 mm | - | - | - |
| 1777984833 | 15.56° C | 72% | 1005.9 hPa | 0 mm | - | - | - |
| 1777981253 | 13.89° C | 84% | 1004.8 hPa | 0 mm | - | - | - |
| 1777979153 | 13.89° C | 84% | 1004.4 hPa | 0 mm | - | - | - |
| 1777978833 | 13.89° C | 84% | 1003.8 hPa | 0 mm | - | - | - |
| 1777978233 | 13.89° C | 84% | 1003.8 hPa | 0 mm | - | - | - |
| 1777977633 | 13.89° C | 84% | 1003.8 hPa | 0 mm | - | - | - |
| 1777977373 | 14.44° C | 83% | 1003.8 hPa | 0 mm | - | - | - |
| 1777975233 | 14.44° C | 81% | 1003.5 hPa | 0 mm | - | - | - |
| 1777974053 | 15° C | 80% | 1003.5 hPa | 0 mm | - | - | - |
| 1777973133 | 15° C | 80% | 1003.5 hPa | 0 mm | - | - | - |
| 1777971633 | 14.44° C | 82% | 1003.5 hPa | 0 mm | - | - | - |
| 1777966833 | 14.44° C | 85% | 1002.2 hPa | 0 mm | - | - | - |
| 1777965933 | 14.44° C | 86% | 1002.5 hPa | 0 mm | - | - | - |
| 1777965633 | 14.44° C | 87% | 1002.5 hPa | 0 mm | - | - | - |
* Rain latest hour (hover to see other rain measurements)
** Current wind speed in m/s (hover to see current wind gust speed)